Total_Precipitation_Accumulation
1.22 1.18 1.06 0.86 0.75 0.76 0.77 0.73 0.68 0.71 0.66 0.68 0.66 0.70 0.81 0.80 0.80 0.88 0.93 0.95 1.02 1.11 1.16 1.17 1.31 1.47 1.57 1.62 1.62 1.60 1.57 1.45 1.23 1.07 0.85 0.69 0.70 0.70 0.73 0.63 0.68 0.73 0.66
0.93 0.84 0.72 0.57 0.51 0.56 0.57 0.52 0.44 0.47 0.44 0.51 0.55 0.54 0.70 0.86 0.88 0.90 0.91 0.86 0.89 0.92 0.97 1.03 1.13 1.19 1.28 1.42 1.54 1.52 1.55 1.55 1.39 1.23 1.04 0.87 0.79 0.76 0.85 0.87 0.83 0.79 0.78
0.87 0.72 0.64 0.57 0.54 0.53 0.47 0.40 0.32 0.31 0.33 0.38 0.51 0.50 0.54 0.71 0.83 0.83 0.78 0.76 0.79 0.81 0.85 0.89 0.95 1.05 1.16 1.20 1.29 1.39 1.44 1.46 1.46 1.33 1.25 1.14 0.99 0.88 0.89 0.88 0.94 1.04 1.01
1.05 0.84 0.72 0.66 0.56 0.47 0.37 0.34 0.29 0.32 0.36 0.35 0.35 0.37 0.43 0.53 0.65 0.66 0.64 0.64 0.63 0.67 0.79 0.87 0.92 0.96 1.02 1.09 1.13 1.24 1.35 1.40 1.38 1.30 1.25 1.20 1.12 1.07 1.04 1.00 1.06 1.17 1.22
0.73 0.54 0.46 0.44 0.39 0.31 0.25 0.23 0.22 0.22 0.22 0.24 0.21 0.22 0.27 0.34 0.39 0.40 0.47 0.52 0.58 0.63 0.73 0.79 0.82 0.78 0.82 0.90 0.89 1.03 1.17 1.31 1.32 1.34 1.26 1.18 1.12 1.08 1.05 1.04 1.10 1.26 1.33
0.35 0.29 0.25 0.21 0.18 0.16 0.15 0.15 0.11 0.09 0.09 0.14 0.14 0.16 0.20 0.22 0.26 0.24 0.29 0.42 0.53 0.60 0.66 0.71 0.78 0.80 0.76 0.72 0.72 0.78 0.90 0.99 1.10 1.19 1.21 1.15 1.10 1.07 1.12 1.19 1.18 1.24 1.37
0.08 0.07 0.06 0.07 0.07 0.06 0.06 0.07 0.07 0.06 0.06 0.08 0.08 0.13 0.17 0.13 0.15 0.14 0.24 0.45 0.51 0.53 0.52 0.64 0.76 0.83 0.85 0.87 0.76 0.75 0.76 0.78 0.83 0.97 1.06 1.07 1.07 1.08 1.08 1.16 1.22 1.23 1.15
0.01 0.01 0.01 0.02 0.03 0.04 0.05 0.05 0.03 0.02 0.03 0.07 0.08 0.14 0.14 0.09 0.10 0.13 0.19 0.36 0.45 0.43 0.45 0.55 0.71 0.82 0.86 0.87 0.82 0.89 0.87 0.76 0.72 0.77 0.94 1.00 1.00 1.10 1.17 1.24 1.32 1.30 1.28
0.00 0.00 0.00 0.00 0.01 0.02 0.02 0.02 0.01 0.01 0.02 0.05 0.09 0.10 0.07 0.04 0.06 0.10 0.18 0.35 0.44 0.44 0.41 0.49 0.65 0.75 0.84 0.85 0.82 0.92 0.94 0.76 0.68 0.75 0.78 0.83 0.91 1.01 1.16 1.25 1.31 1.29 1.28
0.00 0.00 0.00 0.00 0.00 0.01 0.01 0.01 0.01 0.01 0.01 0.02 0.04 0.06 0.05 0.06 0.05 0.05 0.12 0.23 0.32 0.40 0.41 0.46 0.66 0.72 0.75 0.71 0.73 0.94 1.04 0.91 0.67 0.64 0.70 0.80 0.86 0.99 1.19 1.30 1.45 1.40 1.22
0.00 0.00 0.00 0.00 0.00 0.02 0.03 0.02 0.01 0.01 0.01 0.01 0.02 0.03 0.03 0.03 0.05 0.05 0.10 0.12 0.16 0.22 0.28 0.33 0.37 0.49 0.52 0.56 0.67 0.78 0.88 0.79 0.71 0.79 0.88 0.91 0.97 1.01 1.08 1.19 1.36 1.45 1.31
0.00 0.00 0.00 0.01 0.01 0.02 0.05 0.04 0.02 0.01 0.01 0.01 0.02 0.03 0.03 0.03 0.03 0.03 0.06 0.07 0.09 0.14 0.18 0.23 0.27 0.36 0.41 0.47 0.54 0.59 0.62 0.68 0.73 0.87 0.89 0.82 0.86 0.92 0.92 0.99 1.12 1.21 1.07
0.00 0.00 0.00 0.00 0.01 0.02 0.02 0.02 0.02 0.01 0.01 0.01 0.02 0.03 0.04 0.05 0.03 0.03 0.03 0.04 0.05 0.07 0.11 0.17 0.21 0.29 0.30 0.36 0.44 0.44 0.53 0.75 0.86 0.80 0.78 0.75 0.74 0.77 0.75 0.85 1.02 1.14 1.06
0.00 0.00 0.00 0.01 0.01 0.02 0.01 0.01 0.01 0.01 0.01 0.02 0.02 0.03 0.04 0.07 0.03 0.01 0.03 0.05 0.07 0.09 0.11 0.15 0.19 0.27 0.30 0.33 0.38 0.46 0.57 0.72 0.85 0.71 0.59 0.62 0.63 0.70 0.76 0.75 0.82 0.90 1.02
0.00 0.00 0.00 0.00 0.01 0.02 0.01 0.00 0.00 0.00 0.00 0.01 0.01 0.03 0.02 0.02 0.01 0.01 0.02 0.04 0.08 0.08 0.12 0.21 0.32 0.43 0.43 0.44 0.50 0.54 0.57 0.56 0.60 0.54 0.54 0.59 0.62 0.63 0.69 0.71 0.71 0.69 0.71
0.00 0.00 0.00 0.00 0.01 0.01 0.02 0.01 0.00 0.00 0.01 0.01 0.01 0.01 0.01 0.01 0.01 0.04 0.07 0.06 0.08 0.10 0.19 0.25 0.37 0.50 0.54 0.56 0.57 0.57 0.59 0.55 0.54 0.48 0.50 0.51 0.52 0.51 0.52 0.60 0.66 0.70 0.65
0.00 0.00 0.00 0.00 0.00 0.00 0.01 0.03 0.02 0.01 0.00 0.00 0.00 0.00 0.00 0.01 0.02 0.03 0.06 0.08 0.11 0.18 0.20 0.26 0.44 0.49 0.45 0.46 0.51 0.53 0.48 0.38 0.36 0.35 0.31 0.32 0.33 0.33 0.34 0.40 0.49 0.55 0.55
0.01 0.01 0.01 0.01 0.00 0.00 0.00 0.01 0.01 0.03 0.04 0.03 0.01 0.00 0.00 0.00 0.01 0.03 0.04 0.08 0.14 0.19 0.23 0.36 0.49 0.51 0.44 0.36 0.31 0.27 0.23 0.19 0.18 0.19 0.19 0.19 0.23 0.26 0.26 0.27 0.32 0.35 0.39
0.01 0.01 0.01 0.01 0.01 0.01 0.01 0.00 0.01 0.01 0.02 0.03 0.03 0.02 0.01 0.01 0.01 0.01 0.03 0.05 0.09 0.11 0.18 0.27 0.34 0.40 0.33 0.20 0.12 0.09 0.08 0.08 0.09 0.11 0.13 0.14 0.15 0.18 0.21 0.23 0.25 0.30 0.31
0.01 0.02 0.02 0.02 0.01 0.01 0.01 0.01 0.01 0.01 0.01 0.01 0.01 0.02 0.02 0.02 0.02 0.02 0.02 0.03 0.05 0.05 0.06 0.08 0.11 0.11 0.08 0.05 0.05 0.04 0.04 0.05 0.06 0.07 0.08 0.09 0.11 0.14 0.17 0.18 0.18 0.21 0.25
0.01 0.02 0.01 0.01 0.01 0.01 0.02 0.02 0.02 0.01 0.01 0.01 0.01 0.01 0.01 0.02 0.02 0.02 0.03 0.02 0.03 0.03 0.03 0.03 0.03 0.03 0.02 0.02 0.03 0.03 0.03 0.04 0.05 0.05 0.07 0.08 0.09 0.11 0.14 0.16 0.16 0.16 0.18
0.01 0.02 0.02 0.02 0.01 0.02 0.02 0.02 0.02 0.02 0.01 0.01 0.01 0.01 0.01 0.01 0.02 0.02 0.02 0.02 0.02 0.02 0.03 0.03 0.03 0.03 0.03 0.03 0.03 0.04 0.04 0.05 0.05 0.06 0.07 0.08 0.08 0.09 0.10 0.12 0.13 0.13 0.13
0.01 0.01 0.02 0.03 0.03 0.03 0.03 0.03 0.02 0.02 0.02 0.02 0.01 0.01 0.01 0.01 0.01 0.02 0.02 0.02 0.02 0.02 0.02 0.03 0.04 0.04 0.05 0.05 0.05 0.05 0.05 0.05 0.06 0.08 0.10 0.09 0.09 0.09 0.09 0.09 0.10 0.11 0.11
0.01 0.01 0.02 0.02 0.03 0.03 0.03 0.03 0.02 0.02 0.02 0.02 0.02 0.02 0.02 0.02 0.02 0.02 0.01 0.01 0.01 0.01 0.02 0.02 0.03 0.04 0.04 0.05 0.06 0.06 0.06 0.06 0.06 0.07 0.09 0.12 0.11 0.10 0.09 0.09 0.10 0.11 0.11
0.01 0.01 0.02 0.02 0.03 0.03 0.04 0.04 0.03 0.02 0.01 0.02 0.02 0.02 0.02 0.02 0.02 0.01 0.01 0.01 0.01 0.01 0.01 0.02 0.02 0.03 0.03 0.04 0.06 0.07 0.10 0.09 0.07 0.07 0.08 0.11 0.13 0.13 0.12 0.11 0.11 0.12 0.13
0.02 0.02 0.02 0.02 0.02 0.02 0.03 0.04 0.04 0.03 0.02 0.02 0.02 0.02 0.02 0.01 0.02 0.01 0.01 0.00 0.01 0.01 0.01 0.02 0.02 0.02 0.03 0.04 0.05 0.08 0.09 0.08 0.07 0.08 0.08 0.10 0.13 0.14 0.16 0.15 0.13 0.13 0.13